Погода в Ташкенте

Погода в Ташкенте : погода сейчас, прогноз погоды и архив. Всё, что Вы хотите узнать о погоде в Ташкенте!

Хотите узнать прогноз погоды в Ташкенте? Тогда Вам сюда: Погода в Ташкенте

Поиск расширенной информации на нашем сайте:

Другие новости

Новости СМИ2

Главная страница сайта

Новости сайта

03.07.2017

Напоминаем, что на нашем специализированном сайте Метеоцентр.Азия вы можете получить высокодетализированные автоматические прогнозы погоды по пунктам России, СНГ и мира в авиационном формате (включающие направление и скорость ветра, видимость, явления погоды, количество и форму облачности, нижнюю и верхнюю границу облачности).

Рекомендуем: Трансфер в израиле israel4u.ru.

Погода в Ташкенте - сегодня

Время (UTC), дата Ветер
(°,м/с) 
Видим.   Явления Облачность Т
(°С)
Тd
(°С)
f(%) Тe
(°С)
Pmin
(гПа)
dP
(гПа)
Po
(мм)
O2
(г/м3)
Тmin Tmax R s Состояние
почвы
09 18.10.17 160 (Ю) 20000 м    8/8 1000 м 
[Cu hum]
+13.1 +2.3 48 +14  1022.3  -0.3  724  278           
12 18.10.17 160 (Ю) 10 км    8/8 1000 м кучево-дожд. 
[Cb cap]
+12.7 +2.7 51 +13  1023.2  0.7  724  278           
18 18.10.17 тихо ()   10 км    8/8 1000 м 
[Cu Sc]
+9.2 +5.1 75 +9  1026  0.5  726  282    +13.8  0.4     
21 18.10.17 тихо ()   10 км  слаб. дождь  10/10 600 м 
[Ns]
+9.3 +4.3 71 +9  1028.2  727  283           
00 19.10.17 120 (ЮВ) 10 км  в посл. час дождь  9/9 1000 м 
[Sc]
+9.7 +4 68 +11  1027.4  -0.6  727  282           
03 19.10.17 120 (ЮВ) 20000 м  {дождь}  9/9 1000 м 
[Sc]
+11.9 +3 54 +13  1028  1.1  728  280      0.3     
06 19.10.17 190 (Ю) 10 км  {дождь}  9/9 1000 м 
[Sc]
+15.2 +0.9 38 +17  1029  1.5  729  278  +9    0.3     
09 19.10.17 190 (Ю) 10 км    9/6 1000 м средняя 
[Cu med, cong|Ac lent]
+16.7 +2.3 38 +18  1028.8  0.1  729  276           
12 19.10.17 170 (Ю) 10 км    4/0 средняя 
[Ac lent]
+16.8 +3.4 41 +18  1028.8  729  276           
15 19.10.17 060 (СВ) 10 км    ясно 
+10.5 +5.9 73 +12  1030.4  0.3  729  282    +17.7       
18 19.10.17 070 (В) 10 км    ясно 
+8.6 +5.5 81 +10  1030.8  729  284    +17.7       
21 19.10.17 050 (СВ) 10 км    ясно 
+8.7 +4.1 73 +10  1028.9  -1.8  728  283           
00 20.10.17 030 (СВ) 10 км    ясно 
+7.6 +3.6 76 +9  1027.6  -1.4  727  284           
03 20.10.17 050 (СВ) 20000 м    ясно 
+10.6 +1.9 55 +12  1026.1  -0.8  726  281  +7.5        влажная 
06 20.10.17 290 (З) 20000 м    ясно 
+17.3 +1.7 35 +18  1022.7  -2  725  274  +7.5         
09 20.10.17 110 (В) 20000 м    ясно 
+20 +1.3 29 +20  1019.2  -2.7  722  271           
12 20.10.17 150 (ЮВ) 20000 м    3/0 верхняя 
[Ci fib]
+18.2 +4.1 39 +20  1017.3  -2.2  721  272           
15 20.10.17 010 (С) 10 км    ясно 
+13 +6.1 63 +14  1018.4  0.1  721  276    +20.5       
18 20.10.17 080 (В) 10 км    ясно 
+8.6 +5.8 83 +10  1017.3  -1.9  719  280    +20.5       
21 20.10.17 060 (СВ) 10 км    ясно 
+7.6 +4 78 +9  1017.2  -0.3  719  281           
00 21.10.17 120 (ЮВ) 10 км    ясно 
+6.5 +3.7 82 +7  1015.9  -1.5  718  282           
03 21.10.17 050 (СВ) 20000 м    9/0 верхняя 
[Ci]
+7.9 +4.3 78 +9  1016.3  0.8  719  281           
06 21.10.17 290 (З) 20000 м    9/0 верхняя 
[Ci fib]
+18.2 +2.9 36 +20  1014.3  719  271  +6         
09 21.10.17 290 (З) 10 км    9/0 верхняя 
[Ci fib]
+19.4 +2.3 32 +21  1013.8  -0.3  719  270           
12 21.10.17 230 (ЮЗ) 10 км    9/0 средняя, верхняя 
[Ac lent|Ci]
+17.7 +2.7 37 +19  1014.9  0.7  719  272           
Время (UTC), дата Ветер
(°,м/с) 
Видим.   Явления Облачность Т
(°С)
Тd
(°С)
f(%) Тe
(°С)
Pmin
(гПа)
dP
(гПа)
Po
(мм)
O2
(г/м3)
Тmin Tmax R s Состояние
почвы

Для получения пояснительной информации подведите курсор к названию столбца.

ПОГОДА в Ташкенте - архив

Всё, что Вы хотите узнать о погоде в Ташкенте - удобно и подробно!

Выберите нужную дату (начиная с 1 января 2015* года) и нажмите кнопку "Найти".
Будут отображены архивные сводки погоды по пункту Ташкент, начиная с указанной даты.


Отображать данные в формате CSV (для использования в таблицах Excel)


Внимание! Наш архив погоды предназначен исключительно для личного некоммерческого использования в познавательных целях. Если Вам необходимы официальные справки о состоянии погоды (для производственных, юридических, коммерческих и т.п. целей), обращайтесь в органы Росгидромета.

*Примечание: данная дата относится к архиву по метеостанциям СССР (Россия, СНГ, Балтия).
Архив по метеостанциям Зарубежной Европы и Азии (кроме Китая) хранится 10 дней, по другим регионам земного шара (Китай, Африка, Америка, Австралия, Океания) - 1 день.

Ташкент - район местоположения метеостанции


Название, широта, долгота, высота метеостанции:
Ташкент (город) 41.3°ш. 69.3°д. 488 м над ур. моря [Узбекистан]

Дополнительная информация

В oтличие oт бoльшинства пoгoдных сайтoв мы публикуем пoдрoбную метеoинфoрмацию в детальнoм прoфессиoнальнoм фoрмате.

Характеристики температуры и влажнoсти вoздуха измеряются на высoте 2 м в тени вдали oт зданий и деревьев.
Скoрoсть ветра измеряется на высoте 10 м (на урoвне рoста челoвека скoрoсть ветра ниже в 1.5-2 раза). Если метеoстанция нахoдится в гoрoде или в лесу, тo скoрoсть ветра занижена на 2-4 м/с пo сравнению с oткрытым местoм. Скoрoсть ветра над акватoриями крупных рек и oзёр, а также на вершинах хoлмoв на 2-5 м/с выше, чем в oбычных услoвиях.
Атмoсфернoе давление в разных тoчках местнoсти мoжет значительнo oтличаться oт давления на метеoстанции, в зависимoсти oт услoвий рельефа (при пoдъёме на 10 м давление пoнижается примернo на 1 мм рт.ст.).